Weather History for Bentonville, AR

Change the Weather History Date:

Saturday, January 28, 2012

  Actual Average Record
Temperature  
Mean Temperature 35 °F -  
Max Temperature 44 °F 46 °F 71 °F (2013)
Min Temperature 26 °F 22 °F 1 °F (1948)
Degree Days  
Heating Degree Days 30    
Moisture  
Dew Point 20 °F    
Average Humidity 52    
Maximum Humidity 74    
Minimum Humidity 29    
Precipitation  
Precipitation 0.00 in - - ()
Sea Level Pressure  
Sea Level Pressure 30.34 in    
Wind  
Wind Speed 9 mph (WNW)    
Max Wind Speed 17 mph    
Max Gust Speed 24 mph    
Visibility 10 miles    
Events      
Averages and records for this station are not official NWS values.
T = Trace of Precipitation, MM = Missing Value Source: NWS Daily Summary

Daily Weather History Graph

Daily Weather History Graph

Search for Another Location

Airport:

Trip Planner

Search our weather history database for the weather conditions in past years. The results will help you decide how hot, cold, wet, or windy it might be!

Date:

Astronomy

Jan. 28, 2012 Rise Set
Actual Time 7:21 AM CST 5:38 PM CST
Civil Twilight 6:54 AM CST 6:05 PM CST
Nautical Twilight 6:23 AM CST 6:36 PM CST
Astronomical Twilight 5:52 AM CST 7:07 PM CST
Moon 9:55 AM CST (1/28) 11:14 PM CST (1/28)
Length of Visible Light 11h 11m
Length of Day
10h 17m
Waxing Crescent, 28% of the Moon is Illuminated
Jan 28
Waxing Crescent
Jan 30
First Quarter
Feb 7
Full
Feb 14
Last Quarter
Feb 21
New

Hourly Weather History & Observations

Time (CST) Temp. Windchill Dew Point Humidity Pressure Visibility Wind Dir Wind Speed Gust Speed Precip Events Conditions
12:15 AM 39.2 °F 31.6 °F 26.6 °F 61% 30.16 in 10.0 mi North 12.7 mph 20.7 mph N/A   Clear
12:35 AM 37.4 °F 28.9 °F 26.6 °F 65% 30.17 in 10.0 mi North 13.8 mph 20.7 mph N/A   Clear
12:55 AM 37.4 °F 28.2 °F 26.6 °F 65% 30.18 in 10.0 mi North 16.1 mph 20.7 mph N/A   Clear
1:15 AM 37.4 °F 27.8 °F 26.6 °F 65% 30.20 in 10.0 mi North 17.3 mph 20.7 mph N/A   Clear
1:35 AM 37.4 °F 29.3 °F 26.6 °F 65% 30.21 in 10.0 mi North 12.7 mph 19.6 mph N/A   Clear
1:55 AM 35.6 °F 26.6 °F 24.8 °F 65% 30.23 in 10.0 mi North 13.8 mph 23.0 mph N/A   Clear
2:15 AM 35.6 °F 26.6 °F 23.0 °F 60% 30.25 in 10.0 mi North 13.8 mph 24.2 mph N/A   Clear
2:35 AM 35.6 °F 27.5 °F 23.0 °F 60% 30.25 in 10.0 mi North 11.5 mph 16.1 mph N/A   Clear
2:55 AM 33.8 °F 25.8 °F 23.0 °F 65% 30.26 in 10.0 mi NNW 10.4 mph - N/A   Clear
3:15 AM 33.8 °F 26.4 °F 21.2 °F 60% 30.27 in 10.0 mi NNW 9.2 mph - N/A   Clear
3:35 AM 33.8 °F 27.7 °F 21.2 °F 60% 30.27 in 10.0 mi NNW 6.9 mph - N/A   Clear
3:55 AM 33.8 °F 27.7 °F 21.2 °F 60% 30.28 in 10.0 mi North 6.9 mph - N/A   Clear
4:35 AM 32.0 °F 27.5 °F 21.2 °F 64% 30.28 in 10.0 mi NNW 4.6 mph - N/A   Clear
4:55 AM 30.2 °F 26.7 °F 21.2 °F 69% 30.28 in 10.0 mi NNW 3.5 mph - N/A   Clear
5:15 AM 30.2 °F 25.4 °F 21.2 °F 69% 30.29 in 10.0 mi NNW 4.6 mph - N/A   Clear
5:35 AM 30.2 °F 26.7 °F 21.2 °F 69% 30.30 in 10.0 mi NW 3.5 mph - N/A   Clear
5:55 AM 30.2 °F - 19.4 °F 64% 30.31 in 10.0 mi Calm Calm - N/A   Clear
6:15 AM 28.4 °F - 21.2 °F 74% 30.31 in 10.0 mi Calm Calm - N/A   Clear
6:35 AM 26.6 °F 22.6 °F 19.4 °F 74% 30.33 in 10.0 mi West 3.5 mph - N/A   Clear
6:55 AM 28.4 °F 24.6 °F 19.4 °F 69% 30.33 in 10.0 mi West 3.5 mph - N/A   Clear
7:15 AM 28.4 °F 24.6 °F 21.2 °F 74% 30.33 in 10.0 mi NW 3.5 mph - N/A   Clear
7:35 AM 28.4 °F - 19.4 °F 69% 30.34 in 10.0 mi Calm Calm - N/A   Clear
7:55 AM 28.4 °F - 19.4 °F 69% 30.35 in 10.0 mi Calm Calm - N/A   Clear
8:15 AM 28.4 °F - 21.2 °F 74% 30.35 in 10.0 mi Calm Calm - N/A   Clear
8:35 AM 30.2 °F 26.7 °F 21.2 °F 69% 30.35 in 10.0 mi NW 3.5 mph - N/A   Clear
8:55 AM 32.0 °F 28.7 °F 21.2 °F 64% 30.36 in 10.0 mi WNW 3.5 mph - N/A   Clear
9:15 AM 33.8 °F 29.6 °F 21.2 °F 60% 30.37 in 10.0 mi WNW 4.6 mph - N/A   Clear
9:35 AM 33.8 °F 29.6 °F 21.2 °F 60% 30.39 in 10.0 mi West 4.6 mph - N/A   Clear
10:15 AM 37.4 °F 34.9 °F 19.4 °F 48% 30.40 in 10.0 mi NNW 3.5 mph - N/A   Clear
10:35 AM 37.4 °F 33.8 °F 19.4 °F 48% 30.41 in 10.0 mi NW 4.6 mph - N/A   Clear
10:55 AM 39.2 °F 35.9 °F 21.2 °F 49% 30.42 in 10.0 mi North 4.6 mph - N/A   Clear
11:15 AM 39.2 °F 35.0 °F 19.4 °F 45% 30.42 in 10.0 mi NNW 5.8 mph - N/A   Clear
11:35 AM 41.0 °F 35.8 °F 17.6 °F 39% 30.43 in 10.0 mi WNW 8.1 mph - N/A   Clear
11:55 AM 41.0 °F 37.1 °F 17.6 °F 39% 30.43 in 10.0 mi West 5.8 mph - N/A   Clear
12:15 PM 42.8 °F 40.1 °F 17.6 °F 36% 30.42 in 10.0 mi West 4.6 mph - N/A   Clear
12:35 PM 42.8 °F 37.5 °F 17.6 °F 36% 30.42 in 10.0 mi WNW 9.2 mph - N/A   Clear
12:55 PM 42.8 °F 38.0 °F 21.2 °F 42% 30.42 in 10.0 mi WNW 8.1 mph - N/A   Clear
1:15 PM 42.8 °F 37.5 °F 17.6 °F 36% 30.41 in 10.0 mi West 9.2 mph - N/A   Clear
1:35 PM 42.8 °F 38.6 °F 19.4 °F 39% 30.40 in 10.0 mi WNW 6.9 mph - N/A   Clear
1:55 PM 44.6 °F 39.7 °F 17.6 °F 34% 30.39 in 10.0 mi WNW 9.2 mph 16.1 mph N/A   Clear
2:15 PM 44.6 °F 39.2 °F 15.8 °F 31% 30.39 in 10.0 mi WNW 10.4 mph - N/A   Clear
2:35 PM 44.6 °F 39.7 °F 15.8 °F 31% 30.39 in 10.0 mi West 9.2 mph - N/A   Clear
2:55 PM 44.6 °F 40.2 °F 15.8 °F 31% 30.39 in 10.0 mi West 8.1 mph - N/A   Clear
3:15 PM 44.6 °F 40.7 °F 15.8 °F 31% 30.38 in 10.0 mi West 6.9 mph - N/A   Clear
3:35 PM 44.6 °F 40.2 °F 15.8 °F 31% 30.38 in 10.0 mi WSW 8.1 mph - N/A   Clear
3:55 PM 44.6 °F 40.2 °F 14.0 °F 29% 30.38 in 10.0 mi West 8.1 mph - N/A   Clear
4:15 PM 44.6 °F 40.7 °F 15.8 °F 31% 30.37 in 10.0 mi WSW 6.9 mph - N/A   Clear
4:35 PM 44.6 °F 39.2 °F 15.8 °F 31% 30.37 in 10.0 mi WSW 10.4 mph - N/A   Clear
4:55 PM 44.6 °F 40.2 °F 15.8 °F 31% 30.36 in 10.0 mi WSW 8.1 mph - N/A   Clear
5:15 PM 42.8 °F 38.6 °F 17.6 °F 36% 30.36 in 10.0 mi WSW 6.9 mph - N/A   Clear
5:35 PM 41.0 °F 35.8 °F 15.8 °F 36% 30.36 in 10.0 mi WSW 8.1 mph - N/A   Clear
5:55 PM 39.2 °F 34.2 °F 17.6 °F 42% 30.36 in 10.0 mi WSW 6.9 mph - N/A   Clear
6:15 PM 39.2 °F 35.9 °F 15.8 °F 39% 30.36 in 10.0 mi WSW 4.6 mph - N/A   Clear
6:35 PM 37.4 °F 34.9 °F 15.8 °F 41% 30.36 in 10.0 mi SW 3.5 mph - N/A   Clear
6:55 PM 37.4 °F 33.8 °F 15.8 °F 41% 30.36 in 10.0 mi SW 4.6 mph - N/A   Clear
7:15 PM 37.4 °F 33.8 °F 15.8 °F 41% 30.36 in 10.0 mi WSW 4.6 mph - N/A   Clear
7:35 PM 37.4 °F 33.8 °F 15.8 °F 41% 30.37 in 10.0 mi WSW 4.6 mph - N/A   Clear
7:55 PM 35.6 °F 30.7 °F 17.6 °F 48% 30.36 in 10.0 mi SW 5.8 mph - N/A   Clear
8:15 PM 35.6 °F 31.7 °F 17.6 °F 48% 30.36 in 10.0 mi SW 4.6 mph - N/A   Clear
8:35 PM 35.6 °F 31.7 °F 17.6 °F 48% 30.36 in 10.0 mi SW 4.6 mph - N/A   Clear
8:55 PM 35.6 °F 31.7 °F 17.6 °F 48% 30.36 in 10.0 mi SW 4.6 mph - N/A   Clear
9:15 PM 33.8 °F 29.6 °F 17.6 °F 52% 30.36 in 10.0 mi SW 4.6 mph - N/A   Clear
9:35 PM 33.8 °F 29.6 °F 17.6 °F 52% 30.36 in 10.0 mi SW 4.6 mph - N/A   Clear
9:55 PM 33.8 °F 29.6 °F 17.6 °F 52% 30.36 in 10.0 mi SW 4.6 mph - N/A   Clear
10:15 PM 33.8 °F 28.6 °F 17.6 °F 52% 30.36 in 10.0 mi SW 5.8 mph - N/A   Clear
10:35 PM 33.8 °F 28.6 °F 17.6 °F 52% 30.36 in 10.0 mi SW 5.8 mph - N/A   Clear
10:55 PM 33.8 °F 28.6 °F 17.6 °F 52% 30.36 in 10.0 mi SW 5.8 mph - N/A   Clear
11:15 PM 33.8 °F 28.6 °F 17.6 °F 52% 30.35 in 10.0 mi SW 5.8 mph - N/A   Clear
11:35 PM 32.0 °F 25.6 °F 17.6 °F 55% 30.35 in 10.0 mi SW 6.9 mph - N/A   Clear
11:55 PM 32.0 °F 25.6 °F 17.6 °F 55% 30.35 in 10.0 mi SW 6.9 mph - N/A   Clear